[[{"header":{"parameterUnit":"m.s-1","parameterCategory":1,"la1":30.2991,"la2":30.254,"lo1":-89.0895,"lo2":-89.0444,"dy":0.0017,"dx":0.0017,"nx":28,"ny":28,"refTime":"2024-08-08T09:00:00:Z","depth":0,"parameterNumber":2,"parameterNumberName":"U-component_of_WINDS"},"data":[0,0,0,0,0,0,0,0,0,0,0,0,0,0,0,0,0,0,0,0,0,0,0,0,0,0,0,0,0,0,0,0,0,0,0,0,0,0,0,0,0,0,0,0,0,0,0,0,0,0,0,0,0,0,0,0,0,0,1.7958,1.7957,0,1.7901,1.79,1.79,1.7815,1.7813,1.7812,1.781,1.7752,1.7752,1.7751,0,0,0,0,0,0,0,0,0,0,0,0,0,1.7995,1.7995,1.7958,1.7957,1.7957,1.7901,1.79,1.7899,1.7815,1.7813,1.7811,1.781,1.7752,1.7752,1.7751,0,0,0,0,0,0,0,0,0,0,0,0,0,1.7963,1.7995,1.7958,1.7908,1.7903,1.7901,1.79,1.7899,1.7815,1.7813,1.7811,1.7809,1.7752,1.7752,1.7751,1.7795,0,0,1.7751,1.7751,0,0,0,0,0,0,0,0,1.7965,1.7962,1.7916,1.7911,1.7905,1.7863,1.7892,1.7864,1.7816,1.7848,1.781,1.7808,1.779,1.7787,1.7781,1.7792,1.7789,1.7751,1.775,1.775,1.775,0,0,0,0,0,0,0,1.7967,1.7964,1.7935,1.7915,1.7909,1.7888,1.7881,1.7886,1.7833,1.7845,1.7839,1.7833,1.7787,1.7782,1.7779,1.7788,1.7751,1.775,1.775,1.775,1.7834,1.7837,0,0,0,0,0,0,1.7977,1.7966,1.7937,1.7934,1.793,1.789,1.7882,1.7879,1.7832,1.7823,1.7835,1.783,1.7783,1.7779,1.7777,1.7826,1.775,1.775,1.775,1.7832,1.7835,1.7837,0,0,0,0,0,0,1.7978,1.7975,1.7939,1.7948,1.7942,1.7891,1.7889,1.7879,1.7873,1.7825,1.7815,1.7839,1.7781,1.7777,1.7791,1.7822,1.775,1.775,1.7829,1.7833,1.7836,1.7923,0,0,0,0,0,0,1.7979,1.7976,1.7991,1.7949,1.7942,1.7955,1.789,1.7879,1.7873,1.7865,1.7826,1.7817,1.7779,1.7792,1.7791,1.7821,1.775,1.7826,1.7831,1.7835,1.7917,1.7929,1.794,0,0,0,0,0,1.7981,1.8018,1.7992,1.7989,1.796,1.7957,1.7953,1.7908,1.7875,1.7891,1.7861,1.7819,1.7819,1.7794,1.7792,1.7822,1.7824,1.783,1.7835,1.7912,1.7927,1.7939,0,0,0,0,0,0,1.8064,1.8011,1.7983,1.8006,1.7987,1.7942,1.796,1.7924,1.7913,1.7906,1.7851,1.7843,1.7865,1.7845,1.7818,1.7863,1.7815,1.7821,1.7875,1.7889,1.79,1.7904,1.7749,0,0,0,0,0,1.8085,1.8087,1.804,1.8066,1.8058,1.8011,1.8008,1.7975,1.7953,1.7944,1.7914,1.7894,1.789,1.7888,1.7881,1.7914,1.7906,1.7934,1.7945,1.7955,1.796,1.7978,1.7991,1.7855,1.7855,1.7855,0,0,1.8129,1.81,1.8104,1.8082,1.8063,1.8067,1.8004,1.801,1.8013,1.7944,1.7956,1.7935,1.7909,1.7933,1.7942,1.7917,1.7996,1.7962,1.797,1.7969,1.7985,1.7998,1.8009,1.7859,1.7858,1.7858,0,0,1.821,1.8188,1.8208,1.8191,1.8163,1.8132,1.8137,1.8098,1.8081,1.8093,1.8043,1.8045,1.8038,1.8022,1.8013,1.8092,1.8054,1.8091,1.815,1.8168,1.8178,1.8188,1.8217,1.8228,1.8097,1.8097,1.8097,0,1.8268,1.827,1.8222,1.8232,1.8225,1.8164,1.8185,1.817,1.8142,1.8138,1.8111,1.8103,1.8081,1.8102,1.8121,1.8116,1.8121,1.8095,1.8181,1.819,1.8197,1.8225,1.8236,1.8102,1.8101,1.8101,1.81,0,1.8343,1.8347,1.8366,1.8341,1.8336,1.8351,1.8306,1.8306,1.8275,1.8248,1.8261,1.8233,1.8221,1.8224,1.8192,1.8241,1.8226,1.8191,1.8142,1.8216,1.8241,1.8251,1.8109,1.8107,1.8106,1.8104,0,0,1.8474,1.8424,1.8432,1.8421,1.8387,1.8389,1.8402,1.839,1.8392,1.8376,1.8386,1.8383,1.8351,1.8341,1.8308,1.8324,1.839,1.8286,1.8285,1.8307,1.8444,1.8471,1.8484,1.8365,1.8366,1.8368,1.8446,0,1.8549,1.8568,1.8527,1.8556,1.856,1.8504,1.8515,1.8497,1.8472,1.8472,1.8444,1.8444,1.84,1.8394,1.8408,1.8379,1.8417,1.8373,1.8375,1.8375,1.8384,1.8497,1.8525,1.86,1.8456,1.8457,1.8458,0,1.8638,1.8627,1.8658,1.8624,1.8624,1.8635,1.8622,1.8623,1.8601,1.8582,1.8573,1.8534,1.8546,1.85,1.8516,1.8487,1.8486,1.8472,1.8474,1.8473,1.8422,1.8499,1.8623,1.8635,1.8473,1.8472,1.8471,0,1.8732,1.8724,1.8742,1.8734,1.8695,1.8705,1.8689,1.8665,1.8662,1.8651,1.8648,1.8639,1.8634,1.8628,1.8589,1.8559,1.8611,1.8561,1.8597,1.8598,1.861,1.861,1.8736,1.8609,1.8608,1.8608,1.8608,0,1.882,1.8841,1.8784,1.8795,1.8818,1.877,1.8794,1.8773,1.8753,1.876,1.871,1.8718,1.8666,1.8668,1.8638,1.8657,1.8655,1.8641,1.8632,1.8645,1.8647,1.8644,1.8638,1.8611,1.8611,1.861,1.8609,0,1.8928,1.889,1.8906,1.8869,1.886,1.8879,1.8847,1.8856,1.8829,1.8839,1.8838,1.8796,1.8796,1.8757,1.8749,1.8729,1.8762,1.8743,1.8769,1.8764,1.8802,1.88,1.8931,1.8947,1.8809,1.881,1.8811,0,1.8987,1.9002,1.8967,1.8968,1.8955,1.8957,1.8954,1.8909,1.8908,1.8886,1.8898,1.8895,1.8889,1.8893,1.8862,1.8856,1.8838,1.8885,1.8837,1.885,1.884,1.884,1.8842,1.8895,1.8897,1.8898,1.8899,0,1.9096,1.9078,1.9074,1.9066,1.9063,1.9054,1.9042,1.9046,1.8997,1.8998,1.8998,1.8994,1.8987,1.8985,1.8974,1.8958,1.8922,1.8915,1.8923,1.8937,1.8951,1.8945,1.8797,1.8912,1.8911,1.891,1.8909,1.8908,1.9182,1.9194,1.9172,1.917,1.9157,1.9147,1.9155,1.913,1.9129,1.912,1.9093,1.9098,1.9079,1.906,1.9048,1.9052,1.9029,1.9041,1.9044,1.9048,1.9056,1.8951,1.905,1.905,1.9049,1.9049,1.9049,0,1.929,1.9273,1.9273,1.9258,1.9258,1.9223,1.9209,1.9211,1.9216,1.9201,1.9197,1.9199,1.9197,1.9167,1.9162,1.9171,1.9154,1.9171,1.917,1.9168,1.9076,1.907,1.9185,1.9185,1.9185,1.9185,1.9185,1.9185,1.9346,1.9364,1.9343,1.9356,1.9339,1.9344,1.9339,1.933,1.9318,1.9322,1.932,1.9301,1.928,1.9274,1.9271,1.9262,1.9263,1.9287,1.9273,1.9187,1.9174,1.9162,1.9156,1.9287,1.9287,1.9364,1.9365,1.9366]},{"header":{"parameterUnit":"m.s-1","parameterCategory":1,"la1":30.2991,"la2":30.254,"lo1":-89.0895,"lo2":-89.0444,"dy":0.0017,"dx":0.0017,"nx":28,"ny":28,"refTime":"2024-08-08T09:00:00:Z","depth":0,"parameterNumber":3,"parameterNumberName":"V-component_of_WINDS"},"data":[0,0,0,0,0,0,0,0,0,0,0,0,0,0,0,0,0,0,0,0,0,0,0,0,0,0,0,0,0,0,0,0,0,0,0,0,0,0,0,0,0,0,0,0,0,0,0,0,0,0,0,0,0,0,0,0,0,0,-4.6976,-4.6978,0,-4.7082,-4.7083,-4.7084,-4.7094,-4.7093,-4.7092,-4.7091,-4.7194,-4.7197,-4.7201,0,0,0,0,0,0,0,0,0,0,0,0,0,-4.6781,-4.6785,-4.6976,-4.6978,-4.6979,-4.7081,-4.7083,-4.7084,-4.7094,-4.7093,-4.7091,-4.709,-4.7192,-4.7197,-4.7201,0,0,0,0,0,0,0,0,0,0,0,0,0,-4.6874,-4.6786,-4.6976,-4.6996,-4.6999,-4.7081,-4.7083,-4.7085,-4.7094,-4.7093,-4.7091,-4.7089,-4.7191,-4.7196,-4.7202,-4.7269,0,0,-4.7219,-4.7222,0,0,0,0,0,0,0,0,-4.6869,-4.6881,-4.6992,-4.6995,-4.6998,-4.7073,-4.7052,-4.7146,-4.7095,-4.7058,-4.7091,-4.7089,-4.7154,-4.7163,-4.7186,-4.7274,-4.7279,-4.722,-4.7223,-4.7225,-4.7227,0,0,0,0,0,0,0,-4.6862,-4.6877,-4.7018,-4.6994,-4.6998,-4.6999,-4.7011,-4.707,-4.7114,-4.7061,-4.7062,-4.7075,-4.7156,-4.7181,-4.7189,-4.728,-4.7219,-4.7224,-4.7228,-4.723,-4.743,-4.7431,0,0,0,0,0,0,-4.6852,-4.6871,-4.7014,-4.7021,-4.6928,-4.7004,-4.7017,-4.7051,-4.7113,-4.7121,-4.7076,-4.7075,-4.7172,-4.7182,-4.7192,-4.7276,-4.7225,-4.7231,-4.7234,-4.7428,-4.743,-4.7432,0,0,0,0,0,0,-4.6848,-4.6865,-4.701,-4.6946,-4.6965,-4.7009,-4.7047,-4.7054,-4.7078,-4.7125,-4.7132,-4.7093,-4.7171,-4.7184,-4.7251,-4.7279,-4.7233,-4.7238,-4.7425,-4.7428,-4.7431,-4.7443,0,0,0,0,0,0,-4.6843,-4.6864,-4.689,-4.6947,-4.6968,-4.7068,-4.7049,-4.7057,-4.7089,-4.7088,-4.7143,-4.715,-4.7171,-4.7242,-4.7256,-4.7286,-4.7243,-4.7423,-4.7427,-4.743,-4.744,-4.7446,-4.7451,0,0,0,0,0,-4.6836,-4.6888,-4.6892,-4.6909,-4.7003,-4.7069,-4.7082,-4.7105,-4.7091,-4.7118,-4.7148,-4.7149,-4.7274,-4.7249,-4.7265,-4.7297,-4.7421,-4.7426,-4.743,-4.7438,-4.7445,-4.7451,0,0,0,0,0,0,-4.6832,-4.6896,-4.69,-4.6973,-4.7016,-4.7071,-4.7105,-4.7112,-4.7158,-4.7155,-4.7181,-4.7194,-4.7259,-4.7285,-4.7255,-4.7366,-4.7346,-4.7354,-4.7347,-4.7354,-4.7359,-4.7351,-4.7247,0,0,0,0,0,-4.684,-4.6889,-4.6942,-4.7001,-4.7023,-4.7061,-4.709,-4.7105,-4.715,-4.7168,-4.7202,-4.7245,-4.7294,-4.7325,-4.7373,-4.7444,-4.7456,-4.7474,-4.748,-4.7484,-4.749,-4.753,-4.7539,-4.7446,-4.7446,-4.7446,0,0,-4.6856,-4.6897,-4.6926,-4.7002,-4.7037,-4.7087,-4.7076,-4.7129,-4.7166,-4.7175,-4.724,-4.7268,-4.7316,-4.7386,-4.7418,-4.7409,-4.7518,-4.7489,-4.7492,-4.7496,-4.7535,-4.7544,-4.7552,-4.7449,-4.7449,-4.7448,0,0,-4.6911,-4.6947,-4.7001,-4.7037,-4.7091,-4.7116,-4.7129,-4.7184,-4.7202,-4.7269,-4.7277,-4.7321,-4.7405,-4.744,-4.7468,-4.7539,-4.7542,-4.7554,-4.7581,-4.762,-4.7627,-4.7634,-4.7658,-4.7667,-4.756,-4.756,-4.756,0,-4.6923,-4.7,-4.7027,-4.7081,-4.7114,-4.7127,-4.7181,-4.7214,-4.728,-4.7302,-4.7292,-4.7398,-4.7432,-4.751,-4.7527,-4.755,-4.7565,-4.7547,-4.7624,-4.7631,-4.7637,-4.7661,-4.7671,-4.7561,-4.7561,-4.7561,-4.7561,0,-4.7013,-4.7067,-4.7103,-4.7169,-4.7206,-4.726,-4.7294,-4.7328,-4.734,-4.7366,-4.7433,-4.7475,-4.7532,-4.7551,-4.7563,-4.7631,-4.7624,-4.7619,-4.7599,-4.7647,-4.767,-4.7679,-4.7563,-4.7562,-4.7562,-4.7562,0,0,-4.7066,-4.7148,-4.7161,-4.7191,-4.7253,-4.7294,-4.7348,-4.7406,-4.7434,-4.748,-4.7526,-4.7598,-4.7594,-4.7626,-4.7642,-4.7676,-4.7729,-4.7667,-4.7668,-4.7676,-4.7807,-4.781,-4.7821,-4.7732,-4.7734,-4.7736,-4.7803,0,-4.7128,-4.7226,-4.7253,-4.7336,-4.7386,-4.74,-4.7447,-4.7489,-4.7516,-4.7561,-4.7589,-4.764,-4.7631,-4.765,-4.7685,-4.7716,-4.7756,-4.7711,-4.7774,-4.7776,-4.776,-4.7833,-4.7836,-4.7897,-4.7812,-4.7814,-4.7815,0,-4.7212,-4.7262,-4.735,-4.7407,-4.7429,-4.7471,-4.7526,-4.7569,-4.7618,-4.7634,-4.7672,-4.7685,-4.7742,-4.772,-4.7798,-4.7767,-4.7795,-4.7814,-4.7817,-4.7822,-4.7797,-4.784,-4.7918,-4.7926,-4.7829,-4.7828,-4.7827,0,-4.7242,-4.7331,-4.7395,-4.7421,-4.7488,-4.7518,-4.7547,-4.7594,-4.7627,-4.7675,-4.7697,-4.775,-4.7779,-4.782,-4.7847,-4.7829,-4.7922,-4.7903,-4.7937,-4.7936,-4.7955,-4.7953,-4.8037,-4.7974,-4.7974,-4.7974,-4.7973,0,-4.7307,-4.736,-4.741,-4.7449,-4.751,-4.754,-4.7598,-4.7628,-4.767,-4.7715,-4.773,-4.7772,-4.7805,-4.7851,-4.7873,-4.7934,-4.7947,-4.7961,-4.7966,-4.7959,-4.7958,-4.7977,-4.7973,-4.7976,-4.7976,-4.7975,-4.7975,0,-4.7349,-4.7385,-4.7456,-4.7515,-4.7531,-4.7573,-4.7623,-4.7661,-4.7689,-4.7746,-4.7761,-4.7804,-4.7859,-4.7891,-4.7959,-4.7974,-4.8042,-4.8045,-4.8026,-4.8028,-4.8059,-4.8056,-4.8158,-4.8173,-4.81,-4.8101,-4.8102,0,-4.7388,-4.743,-4.7494,-4.7526,-4.7557,-4.7608,-4.7643,-4.7674,-4.7709,-4.7769,-4.78,-4.7857,-4.7904,-4.7991,-4.8028,-4.8081,-4.8085,-4.8117,-4.8092,-4.8085,-4.8084,-4.8081,-4.8085,-4.812,-4.8121,-4.8122,-4.8122,0,-4.7453,-4.7469,-4.7519,-4.7576,-4.7617,-4.7663,-4.7709,-4.7734,-4.7773,-4.7811,-4.7869,-4.7906,-4.7978,-4.8033,-4.809,-4.8119,-4.8127,-4.813,-4.8141,-4.8133,-4.812,-4.8127,-4.8036,-4.8127,-4.8127,-4.8126,-4.8126,-4.8126,-4.7494,-4.7532,-4.7584,-4.764,-4.7678,-4.772,-4.776,-4.7794,-4.7843,-4.7905,-4.792,-4.7981,-4.8029,-4.8106,-4.8137,-4.8184,-4.8178,-4.8193,-4.8197,-4.82,-4.8201,-4.8114,-4.8195,-4.8194,-4.8194,-4.8194,-4.8194,0,-4.756,-4.7594,-4.7645,-4.7709,-4.7753,-4.776,-4.7811,-4.7846,-4.79,-4.7945,-4.7992,-4.8059,-4.8113,-4.8155,-4.8211,-4.8241,-4.8246,-4.8254,-4.8252,-4.8258,-4.8203,-4.8188,-4.8249,-4.8249,-4.8249,-4.8249,-4.8249,-4.8249,-4.7599,-4.7664,-4.7686,-4.777,-4.7804,-4.7865,-4.7894,-4.7933,-4.7969,-4.8043,-4.809,-4.8118,-4.8161,-4.8221,-4.8271,-4.8282,-4.8301,-4.8309,-4.832,-4.8268,-4.8262,-4.8256,-4.8242,-4.8314,-4.8314,-4.8371,-4.8372,-4.8372]}]]